Bellingham, WA

10:22 AM PST on February 07, 2016 (GMT -0800)
Bellingham International

Weather History for KBLI - September, 2013

Change the Weather History Date:

Sunday, September 15, 2013

  Actual Average Record
Temperature  
Mean Temperature 62 °F 58 °F  
Max Temperature 68 °F 67 °F 87 °F (1951)
Min Temperature 55 °F 48 °F 35 °F (1969)
Degree Days  
Heating Degree Days 3 7  
Month to date heating degree days 25 88  
Cooling Degree Days 0 0  
Month to date cooling degree days 6 0  
Year to date cooling degree days 95 40  
Growing Degree Days 10 (Base 50)    
Moisture  
Dew Point 57 °F    
Average Humidity 87    
Maximum Humidity 100    
Minimum Humidity 73    
Precipitation  
Precipitation 0.32 in 0.06 in 0.71 in (2004)
Month to date precipitation 1.05 0.83  
Year to date precipitation 17.13 21.18  
Sea Level Pressure  
Sea Level Pressure 29.75 in    
Wind  
Wind Speed 6 mph (SSE)    
Max Wind Speed 17 mph    
Max Gust Speed 25 mph    
Visibility 4 miles    
Events Fog , Rain    
T = Trace of Precipitation, MM = Missing Value Source: NWS Daily Summary

Daily Weather History Graph

Daily Weather History Graph

Search for Another Location

Airport or City:

Trip Planner

Search our weather history database for the weather conditions in past years. The results will help you decide how hot, cold, wet, or windy it might be!

Date:

Astronomy

Sep. 15, 2013 Rise Set
Actual Time 6:47 AM PDT 7:22 PM PDT
Civil Twilight 6:15 AM PDT 7:53 PM PDT
Nautical Twilight 5:37 AM PDT 8:31 PM PDT
Astronomical Twilight 4:58 AM PDT 9:10 PM PDT
Moon 5:07 PM PDT (9/15) 2:14 AM PDT (9/15)
Length of Visible Light 13h 38m
Length of Day
12h 34m
Waxing Gibbous, 83% of the Moon is Illuminated
Sep 15
Waxing Gibbous
Sep 19
Full
Sep 26
Last Quarter
Oct 4
New
Oct 11
First Quarter

Hourly Weather History & Observations

Time (PDT) Temp. Dew Point Humidity Pressure Visibility Wind Dir Wind Speed Gust Speed Precip Events Conditions
12:42 AM 57.2 °F 57.2 °F 100% 29.75 in 0.2 mi Calm Calm - N/A Fog Fog
12:53 AM 57.0 °F 55.9 °F 96% 29.77 in 0.2 mi Calm Calm - N/A Fog Fog
1:45 AM 57.2 °F 55.4 °F 94% 29.74 in 0.2 mi Calm Calm - N/A Fog Fog
1:53 AM 57.0 °F 55.9 °F 96% 29.76 in 0.2 mi Calm Calm - N/A Fog Fog
2:33 AM 55.4 °F 55.4 °F 100% 29.74 in 0.2 mi Calm Calm - N/A Fog Fog
2:53 AM 55.9 °F 55.0 °F 97% 29.75 in 0.2 mi Calm Calm - N/A Fog Fog
3:34 AM 55.4 °F 55.4 °F 100% 29.72 in 0.2 mi Calm Calm - N/A Fog Fog
3:53 AM 55.9 °F 55.0 °F 97% 29.74 in 0.2 mi Calm Calm - N/A Fog Fog
4:53 AM 55.9 °F 55.0 °F 97% 29.74 in 0.2 mi Calm Calm - N/A Fog Fog
5:14 AM 55.4 °F 55.4 °F 100% 29.72 in 0.2 mi Calm Calm - N/A Fog Fog
5:26 AM 55.4 °F 55.4 °F 100% 29.72 in 0.2 mi Calm Calm - N/A Fog Fog
5:53 AM 55.9 °F 55.0 °F 97% 29.74 in 0.2 mi Calm Calm - N/A Fog Fog
6:01 AM 55.4 °F 55.4 °F 100% 29.72 in 0.2 mi Calm Calm - N/A Fog Fog
6:12 AM 55.4 °F 55.4 °F 100% 29.72 in 0.2 mi Calm Calm - N/A Fog Fog
6:20 AM 55.4 °F 55.4 °F 100% 29.72 in 0.8 mi Calm Calm - N/A   Mist
6:32 AM 55.4 °F 55.4 °F 100% 29.72 in 1.0 mi Calm Calm - N/A   Overcast
6:53 AM 55.9 °F 55.0 °F 97% 29.74 in 0.2 mi Calm Calm - N/A Fog Fog
7:10 AM 55.4 °F 55.4 °F 100% 29.72 in 0.2 mi Calm Calm - N/A Fog Fog
7:53 AM 55.9 °F 55.0 °F 97% 29.74 in 0.2 mi Calm Calm - N/A Fog Fog
8:16 AM 55.4 °F 55.4 °F 100% 29.71 in 1.0 mi Calm Calm - N/A   Overcast
8:24 AM 57.2 °F 55.4 °F 94% 29.71 in 3.0 mi Calm Calm - N/A   Overcast
8:27 AM 57.2 °F 55.4 °F 94% 29.71 in 2.0 mi Calm Calm - N/A   Overcast
8:43 AM 57.2 °F 55.4 °F 94% 29.71 in 1.0 mi Calm Calm - N/A   Overcast
8:53 AM 57.0 °F 55.9 °F 96% 29.73 in 1.0 mi Calm Calm - N/A   Overcast
8:57 AM 57.2 °F 55.4 °F 94% 29.71 in 0.2 mi SSE 3.5 mph - N/A Fog Fog
9:33 AM 57.2 °F 55.4 °F 94% 29.71 in 0.2 mi Calm Calm - N/A Fog Fog
9:53 AM 57.0 °F 55.9 °F 96% 29.73 in 0.2 mi South 4.6 mph - N/A Fog Fog
10:46 AM 57.2 °F 55.4 °F 94% 29.72 in 0.5 mi South 9.2 mph - N/A Fog Fog
10:53 AM 57.9 °F 57.0 °F 97% 29.74 in 0.5 mi South 10.4 mph - N/A Fog Fog
11:10 AM 57.2 °F 57.2 °F 100% 29.72 in 0.8 mi South 11.5 mph 19.6 mph N/A   Overcast
11:18 AM 57.2 °F 57.2 °F 100% 29.72 in 1.5 mi South 10.4 mph 20.7 mph N/A   Overcast
11:22 AM 57.2 °F 57.2 °F 100% 29.72 in 3.0 mi South 12.7 mph 20.7 mph N/A   Overcast
11:53 AM 57.9 °F 55.9 °F 93% 29.75 in 5.0 mi South 13.8 mph 25.3 mph N/A   Overcast
12:51 PM 59.0 °F 55.4 °F 88% 29.75 in 5.0 mi SSE 13.8 mph 18.4 mph 0.01 in   Overcast
12:53 PM 59.0 °F 55.9 °F 90% 29.77 in 5.0 mi South 11.5 mph 18.4 mph 0.01 in   Overcast
1:29 PM 62.6 °F 57.2 °F 82% 29.74 in 6.0 mi SE 5.8 mph - N/A   Haze
1:53 PM 66.0 °F 57.9 °F 75% 29.74 in 10.0 mi Calm Calm - N/A   Scattered Clouds
2:53 PM 64.9 °F 57.0 °F 75% 29.75 in 10.0 mi South 9.2 mph - N/A   Clear
3:41 PM 62.6 °F 57.2 °F 82% 29.74 in 10.0 mi South 15.0 mph 25.3 mph N/A   Partly Cloudy
3:53 PM 62.1 °F 57.0 °F 84% 29.76 in 10.0 mi South 11.5 mph 24.2 mph N/A   Mostly Cloudy
4:00 PM 62.6 °F 55.4 °F 77% 29.74 in 10.0 mi South 16.1 mph 24.2 mph N/A   Mostly Cloudy
4:23 PM 62.6 °F 55.4 °F 77% 29.74 in 10.0 mi South 10.4 mph 23.0 mph N/A   Overcast
4:48 PM 60.8 °F 57.2 °F 88% 29.73 in 8.0 mi South 10.4 mph 19.6 mph 0.03 in Rain Light Rain
4:53 PM 59.0 °F 57.0 °F 93% 29.75 in 10.0 mi South 12.7 mph 18.4 mph 0.03 in Rain Light Rain
5:53 PM 61.0 °F 57.9 °F 90% 29.75 in 10.0 mi South 9.2 mph - 0.00 in Rain Light Rain
6:18 PM 60.8 °F 57.2 °F 88% 29.75 in 10.0 mi South 10.4 mph 17.3 mph N/A   Overcast
6:27 PM 60.8 °F 57.2 °F 88% 29.76 in 9.0 mi South 15.0 mph 24.2 mph N/A   Overcast
6:34 PM 62.6 °F 57.2 °F 82% 29.76 in 8.0 mi South 13.8 mph 21.9 mph N/A   Overcast
6:53 PM 61.0 °F 59.0 °F 93% 29.78 in 7.0 mi South 11.5 mph - 0.00 in Rain Light Rain
7:09 PM 60.8 °F 57.2 °F 88% 29.78 in 5.0 mi South 12.7 mph 18.4 mph 0.02 in Rain Light Rain
7:45 PM 60.8 °F 57.2 °F 88% 29.77 in 8.0 mi SE 8.1 mph - 0.08 in   Overcast
7:53 PM 60.1 °F 59.0 °F 96% 29.80 in 5.0 mi SSE 9.2 mph - 0.10 in Rain Light Rain
8:27 PM 60.8 °F 59.0 °F 94% 29.79 in 7.0 mi SSE 8.1 mph - 0.04 in Rain Light Rain
8:51 PM 60.8 °F 59.0 °F 94% 29.79 in 5.0 mi SSE 6.9 mph - 0.12 in Rain Rain
8:53 PM 61.0 °F 59.0 °F 93% 29.81 in 5.0 mi SSE 6.9 mph - 0.13 in Rain Rain
9:02 PM 60.8 °F 59.0 °F 94% 29.78 in 5.0 mi South 6.9 mph - 0.03 in Rain Rain
9:10 PM 60.8 °F 59.0 °F 94% 29.77 in 6.0 mi South 3.5 mph - 0.04 in Rain Light Rain
9:53 PM 61.0 °F 59.0 °F 93% 29.80 in 10.0 mi SSE 4.6 mph - 0.05 in   Overcast
10:53 PM 61.0 °F 59.0 °F 93% 29.79 in 10.0 mi SSE 8.1 mph - N/A   Overcast
11:53 PM 62.1 °F 59.0 °F 90% 29.79 in 10.0 mi SSE 10.4 mph - N/A   Overcast